WB5OMR-9 Weather Reports


time (UTC)temp
C
wind
direction
speed
KPH
gust
KPH
rain 1hr
cm
rain 24hr
cm
rain mn
cm
humidity
%
barometer
mb
20260903013825 35 135 0.0 0.0 0.00 0.00 0.00 37 1011.2
20260903012742 35 135 0.0 0.0 0.00 0.00 0.00 37 1011.2
20260903011740 36 135 0.0 0.0 0.00 0.00 0.00 36 1011.2
20260903010739 36 112 0.0 0.0 0.00 0.00 0.00 36 1010.8
20260903005739 36 112 0.0 0.0 0.00 0.00 0.00 34 1011.2
20260903004737 37 135 0.0 0.0 0.00 0.00 0.00 35 1010.8
20260903003736 37 135 0.0 0.0 0.00 0.00 0.00 33 1011.2
20260903002735 38 157 0.0 0.0 0.00 0.00 0.00 33 1011.2
20260903001734 38 157 0.0 0.0 0.00 0.00 0.00 33 1011.2
20260903000733 38 112 0.0 0.0 0.00 0.00 0.00 32 1011.2
20260902235732 39 157 0.0 0.0 0.00 0.00 0.00 32 1011.2
20260902234731 39 157 0.0 0.0 0.00 0.00 0.00 31 1011.2
20260902233730 40 67 0.0 0.0 0.00 0.00 0.00 31 1011.2
20260902232729 40 247 0.0 0.0 0.00 0.00 0.00 30 1011.5
20260902231727 41 247 0.0 0.0 0.00 0.00 0.00 30 1011.2
20260902230727 41 112 0.0 0.0 0.00 0.00 0.00 30 1011.5
20260902225725 41 247 0.0 0.0 0.00 0.00 0.00 30 1011.5
20260902224724 41 247 0.0 0.0 0.00 0.00 0.00 29 1011.5
20260902223723 42 157 0.0 0.0 0.00 0.00 0.00 28 1011.5
20260902222639 42 247 0.0 0.0 0.00 0.00 0.00 28 1011.5
20260902221555 41 135 0.0 0.0 0.00 0.00 0.00 27 1011.5
20260902220511 42 135 0.0 0.0 0.00 0.00 0.00 28 1011.5
20260902215428 43 112 0.0 0.0 0.00 0.00 0.00 28 1011.5
20260902214427 43 247 0.0 0.0 0.00 0.00 0.00 27 1011.5
20260902213343 43 247 0.0 0.0 0.00 0.00 0.00 27 1011.9
20260902212342 44 180 0.0 0.0 0.00 0.00 0.00 26 1011.9
20260902211340 43 247 0.0 0.0 0.00 0.00 0.00 27 1011.9
20260902210257 43 247 0.0 0.0 0.00 0.00 0.00 27 1012.2
20260902205213 43 157 0.0 0.0 0.00 0.00 0.00 27 1012.2
20260902204129 43 157 0.0 0.0 0.00 0.00 0.00 27 1012.5
20260902203128 43 157 0.0 0.0 0.00 0.00 0.00 28 1012.5
20260902202045 43 112 0.0 0.0 0.00 0.00 0.00 29 1012.5
20260902201002 43 157 0.0 0.0 0.00 0.00 0.00 29 1012.9
20260902195918 43 247 0.0 0.0 0.00 0.00 0.00 30 1013.2
20260902194917 42 135 0.0 0.0 0.00 0.00 0.00 31 1013.2
20260902193916 42 292 0.0 0.0 0.00 0.00 0.00 31 1013.2
20260902192915 42 180 0.0 0.0 0.00 0.00 0.00 33 1013.5
20260902191915 42 247 0.0 0.0 0.00 0.00 0.00 33 1013.9
20260902190913 41 0 0.0 0.0 0.00 0.00 0.00 35 1013.9
20260902185913 41 135 0.0 0.0 0.00 0.00 0.00 34 1014.2
20260902184912 41 67 0.0 0.0 0.00 0.00 0.00 35 1014.2
20260902183910 41 157 0.0 0.0 0.00 0.00 0.00 35 1014.2
20260902182909 41 247 0.0 0.0 0.00 0.00 0.00 37 1014.6
20260902181826 40 247 0.0 0.0 0.00 0.00 0.00 38 1014.9
20260902180743 40 225 0.0 0.0 0.00 0.00 0.00 38 1015.2
20260902175700 40 0 0.0 0.0 0.00 0.00 0.00 39 1015.6
20260902174659 40 180 0.0 0.0 0.00 0.00 0.00 39 1016.3
20260902173658 39 270 0.0 0.0 0.00 0.00 0.00 39 1015.6
20260902172657 38 225 0.0 0.0 0.00 0.00 0.00 41 1014.9
20260902171656 38 202 0.0 0.0 0.00 0.00 0.00 43 1014.9
20260902170655 38 247 0.0 0.0 0.00 0.00 0.00 46 1015.6
20260902165611 38 157 0.0 0.0 0.00 0.00 0.00 47 1015.6
20260902164610 37 157 0.0 0.0 0.00 0.00 0.00 49 1015.9
20260902163526 36 157 0.0 0.0 0.00 0.00 0.00 51 1015.9
20260902162526 36 180 0.0 0.0 0.00 0.00 0.00 52 1015.9
20260902161525 36 247 0.0 0.0 0.00 0.00 0.00 54 1015.9
20260902160524 35 270 0.0 0.0 0.00 0.00 0.00 56 1015.9
20260902155522 34 202 0.0 0.0 0.00 0.00 0.00 57 1015.9
20260902154520 34 157 0.0 0.0 0.00 0.00 0.00 59 1015.9
20260902153519 33 247 0.0 0.0 0.00 0.00 0.00 61 1015.9
20260902152516 32 247 0.0 0.0 0.00 0.00 0.00 63 1016.3
20260902151516 32 247 0.0 0.0 0.00 0.00 0.00 65 1016.3
20260902150514 31 247 0.0 0.0 0.00 0.00 0.00 67 1015.9
20260902145514 31 247 0.0 0.0 0.00 0.00 0.00 68 1016.3
20260902144512 31 202 0.0 0.0 0.00 0.00 0.00 69 1016.3
20260902143428 30 157 0.0 0.0 0.00 0.00 0.00 70 1016.3
20260902142428 30 135 0.0 0.0 0.00 0.00 0.00 72 1015.9
20260902141344 29 135 0.0 0.0 0.00 0.00 0.00 75 1015.9
20260902140343 28 90 0.0 0.0 0.00 0.00 0.00 76 1015.6
20260902135343 27 112 0.0 0.0 0.00 0.00 0.00 78 1015.9
20260902134342 27 135 0.0 0.0 0.00 0.00 0.00 79 1015.9
20260902133341 26 90 0.0 0.0 0.00 0.00 0.00 80 1015.9
20260902132339 26 67 0.0 0.0 0.00 0.00 0.00 79 1015.9
20260902131339 25 67 0.0 0.0 0.00 0.00 0.00 78 1015.9
20260902130337 25 67 0.0 0.0 0.00 0.00 0.00 77 1015.6
20260902125336 25 90 0.0 0.0 0.00 0.00 0.00 77 1015.6
20260902124253 25 90 0.0 0.0 0.00 0.00 0.00 77 1015.2
20260902123210 25 90 0.0 0.0 0.00 0.00 0.00 76 1015.2
20260902122209 25 90 0.0 0.0 0.00 0.00 0.00 76 1015.2
20260902121208 25 90 0.0 0.0 0.00 0.00 0.00 76 1015.2
20260902120207 25 90 0.0 0.0 0.00 0.00 0.00 76 1015.2
20260902115205 25 90 0.0 0.0 0.00 0.00 0.00 75 1015.2
20260902114204 25 90 0.0 0.0 0.00 0.00 0.00 75 1015.2
20260902113121 26 90 0.0 0.0 0.00 0.00 0.00 75 1015.2
20260902112038 26 90 0.0 0.0 0.00 0.00 0.00 75 1015.2
20260902111037 26 90 0.0 0.0 0.00 0.00 0.00 74 1015.2
20260902105954 26 112 0.0 0.0 0.00 0.00 0.00 74 1014.9
20260902104910 26 112 0.0 0.0 0.00 0.00 0.00 73 1014.9
20260902103825 26 135 0.0 0.0 0.00 0.00 0.00 72 1015.2
20260902102824 26 135 0.0 0.0 0.00 0.00 0.00 72 1015.2
20260902101823 26 135 0.0 0.0 0.00 0.00 0.00 72 1015.2
20260902100822 26 135 0.0 0.0 0.00 0.00 0.00 72 1014.9
20260902095821 26 135 0.0 0.0 0.00 0.00 0.00 72 1015.2
20260902094819 26 135 0.0 0.0 0.00 0.00 0.00 71 1014.9
20260902093818 26 135 0.0 0.0 0.00 0.00 0.00 71 1015.2
20260902092817 26 135 0.0 0.0 0.00 0.00 0.00 70 1015.2
20260902091816 26 135 0.0 0.0 0.00 0.00 0.00 69 1014.9
20260902090815 26 135 0.0 0.0 0.00 0.00 0.00 69 1014.9
20260902085814 27 135 0.0 0.0 0.00 0.00 0.00 69 1015.2
20260902084813 27 135 0.0 0.0 0.00 0.00 0.00 69 1015.2
20260902083729 27 135 0.0 0.0 0.00 0.00 0.00 69 1015.2
20260902082728 27 135 0.0 0.0 0.00 0.00 0.00 70 1015.2
20260902081727 27 135 0.0 0.0 0.00 0.00 0.00 70 1014.9
20260902080726 27 112 0.0 0.0 0.00 0.00 0.00 69 1014.9
20260902075726 27 157 0.0 0.0 0.00 0.00 0.00 68 1015.2
20260902074724 27 135 0.0 0.0 0.00 0.00 0.00 69 1015.2
20260902073723 27 157 0.0 0.0 0.00 0.00 0.00 68 1015.2
20260902072640 27 112 0.0 0.0 0.00 0.00 0.00 67 1015.2
20260902071639 27 157 0.0 0.0 0.00 0.00 0.00 66 1015.2
20260902070639 27 157 0.0 0.0 0.00 0.00 0.00 66 1015.2
20260902065637 28 157 0.0 0.0 0.00 0.00 0.00 65 1014.9
20260902064636 28 135 0.0 0.0 0.00 0.00 0.00 63 1014.9
20260902063553 28 135 0.0 0.0 0.00 0.00 0.00 62 1015.2
20260902062510 28 157 0.0 0.0 0.00 0.00 0.00 61 1015.2
20260902061426 28 112 0.0 0.0 0.00 0.00 0.00 61 1015.2
20260902060426 28 180 0.0 0.0 0.00 0.00 0.00 60 1014.9
20260902055342 29 157 0.0 0.0 0.00 0.00 0.00 59 1014.9
20260902054341 29 135 0.0 0.0 0.00 0.00 0.00 58 1015.2
20260902053340 29 157 0.0 0.0 0.00 0.00 0.00 58 1015.2
20260902052340 30 112 0.0 0.0 0.00 0.00 0.00 58 1015.2
20260902051338 30 135 0.0 0.0 0.00 0.00 0.00 56 1014.9
20260902050337 30 112 0.0 0.0 0.00 0.00 0.00 55 1014.9
20260902045336 30 135 0.0 0.0 0.00 0.00 0.00 54 1014.9
20260902044335 30 135 0.0 0.0 0.00 0.00 0.00 53 1014.9
20260902043334 30 112 0.0 0.0 0.00 0.00 0.00 52 1014.9
20260902042251 30 112 0.0 0.0 0.00 0.00 0.00 51 1014.6
20260902041207 30 157 0.0 0.0 0.00 0.00 0.00 50 1014.6
20260902040206 30 67 0.0 0.0 0.00 0.00 0.00 48 1014.6
20260902035205 30 90 0.0 0.0 0.00 0.00 0.00 47 1014.2
20260902034205 31 135 0.0 0.0 0.00 0.00 0.00 47 1014.2
20260902033204 31 90 0.0 0.0 0.00 0.00 0.00 46 1013.9
20260902032202 31 67 0.0 0.0 0.00 0.00 0.00 46 1013.9
20260902031119 31 90 0.0 0.0 0.00 0.00 0.00 46 1013.5
20260902030036 31 90 0.0 0.0 0.00 0.00 0.00 45 1013.5
20260902025035 31 112 0.0 0.0 0.00 0.00 0.00 45 1013.2
20260902023951 31 135 0.0 0.0 0.00 0.00 0.00 44 1012.5
20260902022950 31 135 0.0 0.0 0.00 0.00 0.00 44 1012.9
20260902021949 32 135 0.0 0.0 0.00 0.00 0.00 44 1013.5
20260902020947 32 135 0.0 0.0 0.00 0.00 0.00 43 1014.2
20260902015945 33 135 0.0 0.0 0.00 0.00 0.00 41 1013.2
20260902014902 33 135 0.0 0.0 0.00 0.00 0.00 40 1013.2